Regional Weather Roundup
Issued by NWS

Home | Current Version | Previous Version | Text Only | Print | Product List | Glossary On
Versions: 1 2 3 4 5 6 7 8 9 10 11 12 13 14 15 16 17 18 19 20 21 22 23 24 25 26 27 28 29 30 31 32 33 34 35 36 37 38 39 40 41 42 43 44 45 46 47 48 49 50
000
ASUS43 KDTX 262210
RWRMI
MICHIGAN HOURLY REGIONAL WEATHER ROUNDUP
NATIONAL WEATHER SERVICE DETROIT/PONTIAC MI
600 PM EDT WED APR 26 2017

NOTE: "FAIR" INDICATES FEW OR NO CLOUDS BELOW 12,000 FEET WITH NO
SIGNIFICANT WEATHER AND/OR OBSTRUCTION TO VISIBILITY.

MIZ047>049-052>055-059>063-066>070-074>076-081>083-262300-
SOUTHEAST LOWER MICHIGAN

CITY           SKY/WX    TMP DP  RH WIND       PRES   REMARKS
ADRIAN         PTSUNNY   82  58  43 S18G25    29.52F
ALMA           CLOUDY    78  57  47 S15G24    29.46S
ANN ARBOR      PTSUNNY   81  56  42 S14       29.52S
BAD AXE        CLOUDY    73  57  55 S24G31    29.53F
CARO           SUNNY     78  58  50 S15G21    29.50F
DETROIT CITY   SUNNY     73  58  59 SE13      29.55F
DETROIT        PTSUNNY   78  55  44 SE13      29.54F
FLINT          CLOUDY    77  57  50 S18       29.51S
GROSSE ILE     SUNNY     75  55  49 SE8       29.53F
HILLSDALE      MOSUNNY   79  57  47 S14       29.52F
HOWELL         PTSUNNY   80  49  34 S15G25    29.51S

CITY           SKY/WX    TMP DP  RH WIND       PRES   REMARKS
JACKSON        MOSUNNY   81  57  43 S17G23    29.50F
LAMBERTVILLE   MOSUNNY   83  54  36 SW10G20   29.52S
LANSING        MOSUNNY   81  57  43 S15G22    29.48F
LAPEER         FAIR      76  57  52 S17G23    29.54F
MASON          PTSUNNY   81  58  46 S5        29.49F
MONROE         MOSUNNY   72  55  56 E8        29.53R
MT. CLEMENS    MOSUNNY   69  58  67 SE10      29.56F
PONTIAC        PTSUNNY   77  55  46 SE13G23   29.53F
PORT HOPE        N/A     70  56  61 SE20G30   29.52F
PORT HURON     SUNNY     73  54  49 SE10G20   29.58F
TRI CITIES     MOSUNNY   80  59  48 S16G28    29.46F
MIDLAND        PTSUNNY   81  53  37 S13G28    29.45S
TROY           SUNNY     80  51  36 SE8G18    29.56F
SAGINAW HB     MOSUNNY   79  52  38 S20G29    29.48S
$$
MIZ043>046-050>051-056>058-064>065-071>073-077>080-262300-
SOUTHWEST LOWER MICHIGAN

CITY           SKY/WX    TMP DP  RH WIND       PRES   REMARKS
BATTLE CREEK   CLOUDY    79  57  46 SW17      29.49F
BENTON HARBOR  CLOUDY    71  53  52 W14G22    29.49S
BIG RAPIDS     MOSUNNY   75  53  47 SW21G31   29.46R
COLDWATER      PTSUNNY   80  53  39 SW15G21   29.50S
FREMONT        FAIR      74  52  46 W14G21    29.47S
HOLLAND        SUNNY     73  58  59 W15       29.50S
GRAND RAPIDS   MOSUNNY   76  58  53 W18G25    29.49R
IONIA          FAIR      77  58  51 W12G20    29.47R
KALAMAZOO      CLOUDY    78  55  44 W10       29.49R
LUDINGTON      SUNNY     64  56  76 SW13G18   29.46S
MARSHALL       CLOUDY    81  57  44 S15G21    29.49S
MOUNT PLEASANT LGT RAIN  74  62  66 S7        29.47S
MUSKEGON       MOSUNNY   71  57  61 SW13G22   29.49R
SOUTH HAVEN    MOSUNNY   71  54  56 W9        29.50R
$$
MIZ016>042-262300-
NORTHERN LOWER MICHIGAN

CITY           SKY/WX    TMP DP  RH WIND       PRES   REMARKS
ALPENA         MOSUNNY   67  55  65 E12       29.50F
BEAVER ISLAND  CLOUDY    57  54  91 SW8       29.43S
BELLAIRE       CLOUDY    73  56  55 S8        29.42F
CADILLAC       PTSUNNY   74  56  52 SW17G30   29.45F
CHARLEVOIX     CLOUDY    58  51  77 N7        29.45F
FRANKFORT      MOSUNNY   64  55  74 S15G23    29.45S
GAYLORD        CLOUDY    74  54  49 S14G23    29.45R
GRAYLING       CLOUDY    75  56  51 S14G21    29.46R
HARBOR SPRINGS CLOUDY    54  54  99 CALM      29.44S FOG
HOUGHTON LAKE  CLOUDY    74  55  51 SW9       29.46S
MANISTEE       SUNNY     69  57  65 SW18G25   29.45R
OSCODA         MOSUNNY   65  51  61 SE10G18   29.50S
PELLSTON       CLOUDY    65  56  72 CALM      29.44F
ROGERS CITY    CLOUDY    69  56  62 SE21G28   29.46F
TRAVERSE CITY  PTSUNNY   77  56  48 SW12G20   29.40S
$$
MIZ007>008-015-262300-
EASTERN UPPER MICHIGAN

CITY           SKY/WX    TMP DP  RH WIND       PRES   REMARKS
KINROSS        CLOUDY    57  53  86 SE17      29.47R
MACKINAC ISLAN CLOUDY    46  46 100 E3        29.46F FOG
NEWBERRY       LGT RAIN  52  51  97 E10       29.42F
S. S. MARIE    CLOUDY    58  50  75 SE17G26   29.47F
MUNISING         N/A     58  56  93 S6        29.35F
$$
MIZ004>006-011>014-085-262300-
CENTRAL UPPER MICHIGAN

CITY           SKY/WX    TMP DP  RH WIND       PRES   REMARKS
MANISTIQUE     FOG       50  49  97 SE8       29.40R VSB 1
ESCANABA       CLOUDY    54  53  97 S12       29.39R FOG
MENOMINEE      PTSUNNY   62  57  83 SW9       29.38F
SAWYER-GWINN   CLOUDY    50  50 100 CALM      29.36F FOG
$$
MIZ001>003-009>011-084-262300-
WESTERN UPPER MICHIGAN

CITY           SKY/WX    TMP DP  RH WIND       PRES   REMARKS
IRON MOUNTAIN  LGT RAIN  57  54  89 S6        29.36R FOG
HOUGHTON       LGT RAIN  36  33  89 N12       29.43F WCI  28
COPPER HARBOR    N/A     35  34  96 NE16      29.46S WCI  25
IRONWOOD       MIX PCPN  34  30  86 N8        29.49S FOG     WCI  27
$$

ABBREVIATIONS USED IN REMARKS
   TC - TEMPERATURE IN CELSIUS
  WCI - WIND CHILL INDEX
   HX - HEAT INDEX
  VSB - VISIBILITY





USA.gov is the U.S. government's official web portal to all federal, state and local government web resources and services.